TimeEST,TemperatureF,Dew PointF,Humidity,Sea Level PressureIn,VisibilityMPH,Wind Direction,Wind SpeedMPH,Gust SpeedMPH,PrecipitationIn,Events,Conditions,WindDirDegrees,DateUTC
12:15 AM,46.4,44.6,93,30.11,3.0,WSW,4.6,-,N/A,,Overcast,240,2012-12-03 05:15:00
12:35 AM,46.4,44.6,93,30.10,2.5,WSW,4.6,-,N/A,,Overcast,240,2012-12-03 05:35:00
12:55 AM,46.4,44.6,93,30.09,2.0,SW,3.5,-,N/A,,Overcast,220,2012-12-03 05:55:00
1:15 AM,46.4,44.6,93,30.11,2.5,WSW,4.6,-,N/A,,Overcast,250,2012-12-03 06:15:00
1:35 AM,46.4,44.6,93,30.11,2.5,West,3.5,-,N/A,,Overcast,260,2012-12-03 06:35:00
1:55 AM,46.4,42.8,87,30.11,1.8,WSW,3.5,-,N/A,,Overcast,240,2012-12-03 06:55:00
2:15 AM,44.6,42.8,93,30.11,1.0,West,3.5,-,N/A,,Overcast,270,2012-12-03 07:15:00
2:35 AM,44.6,42.8,93,30.12,2.0,West,4.6,-,N/A,,Mostly Cloudy,260,2012-12-03 07:35:00
2:55 AM,44.6,42.8,93,30.11,2.5,West,4.6,-,N/A,,Clear,270,2012-12-03 07:55:00
3:15 AM,44.6,42.8,93,30.11,2.0,WSW,3.5,-,N/A,,Mostly Cloudy,250,2012-12-03 08:15:00
3:35 AM,44.6,42.8,93,30.11,1.0,Calm,Calm,-,N/A,,Overcast,0,2012-12-03 08:35:00
3:55 AM,44.6,42.8,93,30.12,1.5,Calm,Calm,-,N/A,,Overcast,0,2012-12-03 08:55:00
4:15 AM,44.6,42.8,93,30.12,0.8,WSW,3.5,-,N/A,,Overcast,240,2012-12-03 09:15:00
4:35 AM,44.6,42.8,93,30.13,0.2,NW,5.8,-,N/A,,Overcast,310,2012-12-03 09:35:00
4:55 AM,44.6,42.8,93,30.13,0.2,West,4.6,-,N/A,,Overcast,270,2012-12-03 09:55:00
5:15 AM,44.6,42.8,93,30.13,0.2,Calm,Calm,-,N/A,,Overcast,0,2012-12-03 10:15:00
5:35 AM,44.6,42.8,93,30.14,0.2,Calm,Calm,-,N/A,,Overcast,0,2012-12-03 10:35:00
5:45 AM,44.6,42.8,93,30.15,0.2,Calm,Calm,-,N/A,Fog,Fog,0,2012-12-03 10:45:00
6:45 AM,42.8,42.8,100,30.16,0.2,Calm,Calm,-,N/A,Fog,Fog,0,2012-12-03 11:45:00
7:45 AM,42.8,39.2,87,30.18,0.2,Calm,Calm,-,N/A,Fog,Fog,0,2012-12-03 12:45:00
8:45 AM,44.6,42.8,93,30.20,0.2,Calm,Calm,-,N/A,Fog,Fog,0,2012-12-03 13:45:00
10:20 AM,48.2,44.6,87,30.22,3.0,Calm,Calm,-,N/A,,Scattered Clouds,0,2012-12-03 15:20:00
11:10 AM,50.0,44.6,82,30.21,5.0,NNE,6.9,-,N/A,,Mostly Cloudy,20,2012-12-03 16:10:00
11:45 AM,51.8,44.6,76,30.20,6.0,NNW,5.8,-,N/A,,Mostly Cloudy,340,2012-12-03 16:45:00
12:55 PM,55.4,42.8,63,30.19,10.0,NNW,9.2,-,N/A,,Partly Cloudy,340,2012-12-03 17:55:00
1:45 PM,55.4,41.0,58,30.19,10.0,North,6.9,-,N/A,,Clear,350,2012-12-03 18:45:00
2:45 PM,53.6,41.0,62,30.20,10.0,North,8.1,-,N/A,,Clear,360,2012-12-03 19:45:00
3:45 PM,53.6,39.2,58,30.22,10.0,NNW,8.1,-,N/A,,Clear,340,2012-12-03 20:45:00
4:45 PM,50.0,39.2,66,30.24,10.0,North,5.8,-,N/A,,Clear,360,2012-12-03 21:45:00
5:45 PM,44.6,37.4,76,30.27,10.0,NNE,5.8,-,N/A,,Clear,20,2012-12-03 22:45:00
6:45 PM,44.6,37.4,76,30.27,10.0,ENE,3.5,-,N/A,,Clear,60,2012-12-03 23:45:00
7:45 PM,42.8,-9999,N/A,30.28,10.0,NNE,3.5,-,N/A,,Clear,20,2012-12-04 00:45:00
8:55 PM,37.4,35.6,93,30.29,10.0,North,4.6,-,N/A,,Clear,10,2012-12-04 01:55:00
9:15 PM,37.4,33.8,87,30.29,10.0,Calm,Calm,-,N/A,,Clear,0,2012-12-04 02:15:00
9:35 PM,39.2,33.8,81,30.29,10.0,Calm,Calm,-,N/A,,Clear,0,2012-12-04 02:35:00
9:55 PM,37.4,33.8,87,30.29,10.0,North,4.6,-,N/A,,Clear,10,2012-12-04 02:55:00
10:15 PM,37.4,33.8,87,30.30,10.0,North,3.5,-,N/A,,Clear,350,2012-12-04 03:15:00
10:35 PM,37.4,33.8,87,30.30,10.0,NE,3.5,-,N/A,,Clear,40,2012-12-04 03:35:00
10:55 PM,35.6,33.8,93,30.30,10.0,Calm,Calm,-,N/A,,Clear,0,2012-12-04 03:55:00
11:15 PM,35.6,30.2,81,30.30,6.0,NE,3.5,-,N/A,,Clear,40,2012-12-04 04:15:00
11:35 PM,35.6,33.8,93,30.30,9.0,East,3.5,-,N/A,,Clear,90,2012-12-04 04:35:00
11:55 PM,35.6,33.8,93,30.30,10.0,NNE,3.5,-,N/A,,Clear,30,2012-12-04 04:55:00